| time (UTC) | temp F | wind direction | speed MPH | gust MPH | rain 1hr in | rain 24hr in | rain mn in | humidity % | barometer mb |
| 20260905212102 | 73 | 331 | 1.0 | 8.0 | 0.00 | 0.00 | 0.00 | 66 | 1013.3 |
| 20260905211535 | 73 | 333 | 3.0 | 8.0 | 0.00 | 0.00 | 0.00 | 65 | 1013.3 |
| 20260905211025 | 73 | 329 | 1.0 | 6.0 | 0.00 | 0.00 | 0.00 | 66 | 1013.3 |
| 20260905210527 | 73 | 329 | 2.0 | 6.0 | 0.00 | 0.00 | 0.00 | 65 | 1013.3 |
| 20260905210100 | 72 | 329 | 2.0 | 8.0 | 0.00 | 0.00 | 0.00 | 66 | 1013.3 |
| 20260905205548 | 72 | 326 | 3.0 | 9.0 | 0.00 | 0.00 | 0.00 | 65 | 1013.3 |
| 20260905205032 | 72 | 330 | 3.0 | 9.0 | 0.00 | 0.00 | 0.00 | 65 | 1013.4 |
| 20260905204541 | 73 | 173 | 2.0 | 6.0 | 0.00 | 0.00 | 0.00 | 66 | 1013.4 |
| 20260905204048 | 73 | 54 | 2.0 | 9.0 | 0.00 | 0.00 | 0.00 | 64 | 1013.4 |
| 20260905203554 | 73 | 360 | 0.0 | 6.0 | 0.00 | 0.00 | 0.00 | 65 | 1013.4 |
| 20260905203042 | 73 | 351 | 3.0 | 6.0 | 0.00 | 0.00 | 0.00 | 63 | 1013.4 |
| 20260905202550 | 73 | 346 | 3.0 | 6.0 | 0.00 | 0.00 | 0.00 | 65 | 1013.3 |
| 20260905202058 | 73 | 95 | 2.0 | 10.0 | 0.00 | 0.00 | 0.00 | 65 | 1013.3 |
| 20260905201506 | 73 | 360 | 4.0 | 10.0 | 0.00 | 0.00 | 0.00 | 63 | 1013.4 |
| 20260905201008 | 73 | 332 | 1.0 | 4.0 | 0.00 | 0.00 | 0.00 | 66 | 1013.4 |
| 20260905200551 | 73 | 333 | 2.0 | 8.0 | 0.00 | 0.00 | 0.00 | 67 | 1013.5 |
| 20260905200055 | 72 | 324 | 3.0 | 8.0 | 0.00 | 0.00 | 0.00 | 66 | 1013.5 |
| 20260905195550 | 72 | 301 | 1.0 | 9.0 | 0.00 | 0.00 | 0.00 | 66 | 1013.5 |
| 20260905195036 | 73 | 329 | 4.0 | 9.0 | 0.00 | 0.00 | 0.00 | 67 | 1013.6 |
| 20260905194518 | 73 | 333 | 2.0 | 5.0 | 0.00 | 0.00 | 0.00 | 69 | 1013.6 |
| 20260905194030 | 73 | 360 | 2.0 | 5.0 | 0.00 | 0.00 | 0.00 | 68 | 1013.6 |
| 20260905193537 | 73 | 316 | 1.0 | 6.0 | 0.00 | 0.00 | 0.00 | 70 | 1013.6 |
| 20260905193046 | 72 | 116 | 2.0 | 11.0 | 0.00 | 0.00 | 0.00 | 71 | 1013.7 |
| 20260905192550 | 72 | 15 | 2.0 | 11.0 | 0.00 | 0.00 | 0.00 | 70 | 1013.7 |
| 20260905192042 | 72 | 346 | 4.0 | 11.0 | 0.00 | 0.00 | 0.00 | 70 | 1013.9 |
| 20260905191546 | 72 | 360 | 4.0 | 11.0 | 0.00 | 0.00 | 0.00 | 69 | 1013.9 |
| 20260905191034 | 72 | 317 | 3.0 | 6.0 | 0.00 | 0.00 | 0.00 | 69 | 1013.8 |
| 20260905190542 | 72 | 360 | 2.0 | 6.0 | 0.00 | 0.00 | 0.00 | 71 | 1013.9 |
| 20260905190048 | 72 | 351 | 1.0 | 10.0 | 0.00 | 0.00 | 0.00 | 71 | 1014.0 |
| 20260905185554 | 72 | 360 | 3.0 | 10.0 | 0.00 | 0.00 | 0.00 | 69 | 1014.2 |
| 20260905185102 | 72 | 345 | 1.0 | 10.0 | 0.00 | 0.00 | 0.00 | 71 | 1014.2 |
| 20260905184506 | 72 | 46 | 1.0 | 8.0 | 0.00 | 0.00 | 0.00 | 71 | 1014.1 |
| 20260905184056 | 72 | 360 | 0.0 | 8.0 | 0.00 | 0.00 | 0.00 | 72 | 1014.0 |
| 20260905183504 | 72 | 347 | 2.0 | 11.0 | 0.00 | 0.00 | 0.00 | 72 | 1014.0 |
| 20260905183006 | 72 | 360 | 6.0 | 11.0 | 0.00 | 0.00 | 0.00 | 70 | 1014.0 |
| 20260905182518 | 72 | 332 | 3.0 | 9.0 | 0.00 | 0.00 | 0.00 | 72 | 1013.9 |
| 20260905182026 | 71 | 333 | 5.0 | 9.0 | 0.00 | 0.00 | 0.00 | 71 | 1014.0 |
| 20260905181532 | 71 | 360 | 4.0 | 9.0 | 0.00 | 0.00 | 0.00 | 70 | 1013.9 |
| 20260905181019 | 72 | 360 | 4.0 | 9.0 | 0.00 | 0.00 | 0.00 | 71 | 1014.0 |
| 20260905180527 | 72 | 360 | 4.0 | 6.0 | 0.00 | 0.00 | 0.00 | 71 | 1014.0 |
| 20260905180019 | 72 | 360 | 1.0 | 11.0 | 0.00 | 0.00 | 0.00 | 72 | 1013.9 |
| 20260905175526 | 72 | 360 | 5.0 | 11.0 | 0.00 | 0.00 | 0.00 | 71 | 1013.9 |
| 20260905175006 | 72 | 319 | 2.0 | 11.0 | 0.00 | 0.00 | 0.00 | 71 | 1013.9 |
| 20260905174520 | 72 | 327 | 3.0 | 9.0 | 0.00 | 0.00 | 0.00 | 70 | 1014.0 |
| 20260905174045 | 72 | 28 | 4.0 | 9.0 | 0.00 | 0.00 | 0.00 | 71 | 1013.9 |
| 20260905173550 | 72 | 350 | 4.0 | 10.0 | 0.00 | 0.00 | 0.00 | 72 | 1014.0 |
| 20260905173058 | 72 | 360 | 3.0 | 10.0 | 0.00 | 0.00 | 0.00 | 73 | 1014.1 |
| 20260905172551 | 71 | 325 | 3.0 | 11.0 | 0.00 | 0.00 | 0.00 | 74 | 1014.1 |
| 20260905172044 | 71 | 360 | 2.0 | 11.0 | 0.00 | 0.00 | 0.00 | 73 | 1014.1 |
| 20260905171600 | 72 | 325 | 5.0 | 11.0 | 0.00 | 0.00 | 0.00 | 70 | 1014.0 |
| 20260905171057 | 72 | 338 | 3.0 | 11.0 | 0.00 | 0.00 | 0.00 | 70 | 1014.0 |
| 20260905170508 | 71 | 26 | 2.0 | 10.0 | 0.00 | 0.00 | 0.00 | 68 | 1014.0 |
| 20260905170028 | 72 | 312 | 4.0 | 12.0 | 0.00 | 0.00 | 0.00 | 68 | 1014.1 |
| 20260905165559 | 72 | 22 | 2.0 | 12.0 | 0.00 | 0.00 | 0.00 | 69 | 1014.1 |
| 20260905165502 | 72 | 24 | 4.0 | 12.0 | 0.00 | 0.00 | 0.00 | 69 | 1014.0 |
| 20260905165049 | 72 | 311 | 2.0 | 9.0 | 0.00 | 0.00 | 0.00 | 70 | 1014.0 |
| 20260905164558 | 72 | 49 | 3.0 | 9.0 | 0.00 | 0.00 | 0.00 | 67 | 1014.0 |
| 20260905164005 | 72 | 330 | 1.0 | 10.0 | 0.00 | 0.00 | 0.00 | 71 | 1013.9 |
| 20260905163514 | 72 | 327 | 2.0 | 13.0 | 0.00 | 0.00 | 0.00 | 69 | 1014.0 |
| 20260905163058 | 72 | 329 | 3.0 | 9.0 | 0.00 | 0.00 | 0.00 | 69 | 1014.2 |
| 20260905162544 | 72 | 330 | 1.0 | 9.0 | 0.00 | 0.00 | 0.00 | 68 | 1014.2 |
| 20260905162051 | 72 | 336 | 1.0 | 6.0 | 0.00 | 0.00 | 0.00 | 67 | 1014.2 |
| 20260905161555 | 72 | 350 | 2.0 | 11.0 | 0.00 | 0.00 | 0.00 | 69 | 1014.1 |
| 20260905161045 | 72 | 327 | 2.0 | 11.0 | 0.00 | 0.00 | 0.00 | 70 | 1014.1 |
| 20260905160551 | 71 | 355 | 1.0 | 10.0 | 0.00 | 0.00 | 0.00 | 69 | 1014.2 |
| 20260905160048 | 71 | 342 | 3.0 | 10.0 | 0.00 | 0.00 | 0.00 | 68 | 1014.2 |
| 20260905155546 | 71 | 333 | 2.0 | 10.0 | 0.00 | 0.00 | 0.00 | 69 | 1014.3 |
| 20260905155051 | 71 | 328 | 3.0 | 9.0 | 0.00 | 0.00 | 0.00 | 70 | 1014.2 |
| 20260905154552 | 71 | 355 | 3.0 | 8.0 | 0.00 | 0.00 | 0.00 | 71 | 1014.1 |
| 20260905154048 | 71 | 5 | 1.0 | 4.0 | 0.00 | 0.00 | 0.00 | 71 | 1014.0 |
| 20260905153534 | 71 | 321 | 2.0 | 6.0 | 0.00 | 0.00 | 0.00 | 72 | 1014.1 |
| 20260905153012 | 71 | 338 | 1.0 | 8.0 | 0.00 | 0.00 | 0.00 | 72 | 1013.9 |
| 20260905152517 | 71 | 329 | 2.0 | 8.0 | 0.00 | 0.00 | 0.00 | 73 | 1013.9 |
| 20260905152026 | 71 | 346 | 1.0 | 8.0 | 0.00 | 0.00 | 0.00 | 75 | 1013.9 |
| 20260905151533 | 71 | 329 | 2.0 | 10.0 | 0.00 | 0.00 | 0.00 | 75 | 1013.7 |
| 20260905151024 | 71 | 350 | 5.0 | 14.0 | 0.00 | 0.00 | 0.00 | 75 | 1013.7 |
| 20260905150525 | 71 | 324 | 4.0 | 8.0 | 0.00 | 0.00 | 0.00 | 76 | 1013.7 |
| 20260905150033 | 71 | 337 | 2.0 | 8.0 | 0.00 | 0.00 | 0.00 | 76 | 1013.7 |
| 20260905145543 | 71 | 339 | 2.0 | 5.0 | 0.00 | 0.00 | 0.00 | 75 | 1013.8 |
| 20260905145046 | 71 | 48 | 1.0 | 6.0 | 0.00 | 0.00 | 0.00 | 75 | 1013.7 |
| 20260905144555 | 71 | 50 | 2.0 | 6.0 | 0.00 | 0.00 | 0.00 | 75 | 1013.7 |
| 20260905144059 | 71 | 33 | 1.0 | 3.0 | 0.00 | 0.00 | 0.00 | 74 | 1013.7 |
| 20260905143507 | 70 | 84 | 1.0 | 9.0 | 0.00 | 0.00 | 0.00 | 74 | 1013.6 |
| 20260905143050 | 70 | 329 | 2.0 | 9.0 | 0.00 | 0.00 | 0.00 | 75 | 1013.7 |
| 20260905142601 | 70 | 336 | 2.0 | 5.0 | 0.00 | 0.00 | 0.00 | 76 | 1013.7 |
| 20260905142031 | 70 | 38 | 1.0 | 4.0 | 0.00 | 0.00 | 0.00 | 76 | 1013.6 |
| 20260905141537 | 70 | 89 | 1.0 | 3.0 | 0.00 | 0.00 | 0.00 | 77 | 1013.6 |
| 20260905141043 | 70 | 342 | 1.0 | 5.0 | 0.00 | 0.00 | 0.00 | 77 | 1013.5 |
| 20260905140531 | 70 | 17 | 2.0 | 5.0 | 0.00 | 0.00 | 0.00 | 76 | 1013.6 |
| 20260905140034 | 70 | 339 | 1.0 | 4.0 | 0.00 | 0.00 | 0.00 | 77 | 1013.7 |
| 20260905135533 | 70 | 333 | 2.0 | 4.0 | 0.00 | 0.00 | 0.00 | 78 | 1013.7 |
| 20260905135019 | 69 | 141 | 1.0 | 4.0 | 0.00 | 0.00 | 0.00 | 79 | 1013.7 |
| 20260905134523 | 69 | 133 | 2.0 | 5.0 | 0.00 | 0.00 | 0.00 | 79 | 1013.6 |
| 20260905134003 | 69 | 346 | 1.0 | 5.0 | 0.00 | 0.00 | 0.00 | 80 | 1013.6 |
| 20260905133515 | 69 | 57 | 2.0 | 5.0 | 0.00 | 0.00 | 0.00 | 80 | 1013.6 |
| 20260905133025 | 69 | 67 | 1.0 | 6.0 | 0.00 | 0.00 | 0.00 | 81 | 1013.6 |
| 20260905132531 | 68 | 124 | 1.0 | 6.0 | 0.00 | 0.00 | 0.00 | 81 | 1013.6 |
| 20260905132039 | 68 | 84 | 1.0 | 6.0 | 0.00 | 0.00 | 0.00 | 82 | 1013.7 |
| 20260905131543 | 68 | 323 | 1.0 | 6.0 | 0.00 | 0.00 | 0.00 | 82 | 1013.7 |
| 20260905131053 | 68 | 316 | 1.0 | 6.0 | 0.00 | 0.00 | 0.00 | 82 | 1013.7 |
| 20260905130558 | 68 | 333 | 1.0 | 4.0 | 0.00 | 0.00 | 0.00 | 83 | 1013.7 |
| 20260905130009 | 67 | 63 | 1.0 | 3.0 | 0.00 | 0.00 | 0.00 | 84 | 1013.7 |
| 20260905125513 | 67 | 112 | 1.0 | 2.0 | 0.00 | 0.00 | 0.00 | 85 | 1013.6 |
| 20260905125053 | 67 | 112 | 0.0 | 2.0 | 0.00 | 0.00 | 0.00 | 85 | 1013.7 |
| 20260905124555 | 67 | 113 | 0.0 | 2.0 | 0.00 | 0.00 | 0.00 | 86 | 1013.6 |
| 20260905124057 | 67 | 113 | 0.0 | 3.0 | 0.00 | 0.00 | 0.00 | 86 | 1013.6 |
| 20260905123505 | 67 | 135 | 1.0 | 3.0 | 0.00 | 0.00 | 0.00 | 87 | 1013.5 |
| 20260905123019 | 66 | 175 | 0.0 | 4.0 | 0.00 | 0.00 | 0.00 | 87 | 1013.6 |
| 20260905122600 | 66 | 175 | 1.0 | 4.0 | 0.00 | 0.00 | 0.00 | 88 | 1013.6 |
| 20260905122504 | 66 | 175 | 1.0 | 4.0 | 0.00 | 0.00 | 0.00 | 88 | 1013.6 |
| 20260905122002 | 66 | 125 | 1.0 | 4.0 | 0.00 | 0.00 | 0.00 | 89 | 1013.4 |
| 20260905121510 | 66 | 130 | 0.0 | 2.0 | 0.00 | 0.00 | 0.00 | 89 | 1013.4 |
| 20260905121022 | 66 | 30 | 0.0 | 2.0 | 0.00 | 0.00 | 0.00 | 90 | 1013.4 |
| 20260905120525 | 65 | 26 | 0.0 | 2.0 | 0.00 | 0.00 | 0.00 | 90 | 1013.4 |
| 20260905120032 | 65 | 25 | 0.0 | 2.0 | 0.00 | 0.00 | 0.00 | 90 | 1013.4 |
| 20260905115533 | 65 | 22 | 0.0 | 3.0 | 0.00 | 0.00 | 0.00 | 90 | 1013.4 |
| 20260905115039 | 65 | 63 | 0.0 | 1.0 | 0.00 | 0.00 | 0.00 | 91 | 1013.4 |
| 20260905114553 | 65 | 55 | 0.0 | 0.0 | 0.00 | 0.00 | 0.00 | 91 | 1013.6 |
| 20260905114056 | 65 | 55 | 0.0 | 1.0 | 0.00 | 0.00 | 0.00 | 91 | 1013.6 |
| 20260905113542 | 65 | 55 | 0.0 | 1.0 | 0.00 | 0.00 | 0.00 | 91 | 1013.7 |
| 20260905113043 | 65 | 55 | 0.0 | 1.0 | 0.00 | 0.00 | 0.00 | 91 | 1013.6 |
| 20260905112523 | 65 | 55 | 0.0 | 0.0 | 0.00 | 0.00 | 0.00 | 91 | 1013.6 |
| 20260905112036 | 65 | 55 | 0.0 | 0.0 | 0.00 | 0.00 | 0.00 | 91 | 1013.5 |
| 20260905111543 | 65 | 55 | 0.0 | 1.0 | 0.00 | 0.00 | 0.00 | 91 | 1013.4 |
| 20260905111045 | 65 | 55 | 0.0 | 1.0 | 0.00 | 0.00 | 0.00 | 91 | 1013.4 |
| 20260905110549 | 65 | 55 | 0.0 | 0.0 | 0.00 | 0.00 | 0.00 | 91 | 1013.7 |
| 20260905110101 | 65 | 55 | 0.0 | 0.0 | 0.00 | 0.00 | 0.00 | 91 | 1013.9 |
| 20260905105503 | 65 | 55 | 0.0 | 0.0 | 0.00 | 0.00 | 0.00 | 90 | 1013.8 |
| 20260905105003 | 65 | 55 | 0.0 | 0.0 | 0.00 | 0.00 | 0.00 | 90 | 1013.6 |
| 20260905104552 | 65 | 55 | 0.0 | 0.0 | 0.00 | 0.00 | 0.00 | 90 | 1013.4 |
| 20260905104041 | 65 | 55 | 0.0 | 0.0 | 0.00 | 0.00 | 0.00 | 90 | 1013.4 |
| 20260905103547 | 65 | 55 | 0.0 | 0.0 | 0.00 | 0.00 | 0.00 | 90 | 1013.2 |
| 20260905103053 | 65 | 55 | 0.0 | 0.0 | 0.00 | 0.00 | 0.00 | 90 | 1013.0 |
| 20260905102600 | 65 | 55 | 0.0 | 1.0 | 0.00 | 0.00 | 0.00 | 90 | 1012.9 |
| 20260905102501 | 65 | 55 | 0.0 | 1.0 | 0.00 | 0.00 | 0.00 | 90 | 1012.9 |
| 20260905102032 | 65 | 55 | 0.0 | 2.0 | 0.00 | 0.00 | 0.00 | 89 | 1012.8 |
| 20260905101539 | 65 | 55 | 0.0 | 2.0 | 0.00 | 0.00 | 0.00 | 89 | 1012.7 |
| 20260905101050 | 65 | 55 | 0.0 | 1.0 | 0.00 | 0.00 | 0.00 | 89 | 1012.7 |
| 20260905100558 | 65 | 55 | 0.0 | 0.0 | 0.00 | 0.00 | 0.00 | 89 | 1012.6 |
| 20260905100006 | 65 | 55 | 0.0 | 0.0 | 0.00 | 0.00 | 0.00 | 89 | 1012.7 |
| 20260905095551 | 66 | 55 | 0.0 | 1.0 | 0.00 | 0.00 | 0.00 | 89 | 1012.6 |
| 20260905095055 | 66 | 55 | 0.0 | 1.0 | 0.00 | 0.00 | 0.00 | 89 | 1012.5 |
| 20260905094558 | 66 | 55 | 0.0 | 1.0 | 0.00 | 0.00 | 0.00 | 89 | 1012.6 |
| 20260905094056 | 66 | 55 | 0.0 | 1.0 | 0.00 | 0.00 | 0.00 | 89 | 1012.5 |
| 20260905093558 | 66 | 55 | 0.0 | 1.0 | 0.00 | 0.00 | 0.00 | 90 | 1012.3 |
| 20260905093501 | 66 | 55 | 0.0 | 1.0 | 0.00 | 0.00 | 0.00 | 90 | 1012.4 |
| 20260905093007 | 66 | 55 | 0.0 | 2.0 | 0.00 | 0.00 | 0.00 | 90 | 1012.5 |
| 20260905092525 | 66 | 55 | 0.0 | 2.0 | 0.00 | 0.00 | 0.00 | 90 | 1012.3 |
| 20260905092028 | 66 | 81 | 0.0 | 2.0 | 0.00 | 0.00 | 0.00 | 91 | 1012.3 |
| 20260905091537 | 66 | 88 | 0.0 | 2.0 | 0.00 | 0.00 | 0.00 | 91 | 1012.4 |
| 20260905091043 | 66 | 77 | 0.0 | 1.0 | 0.00 | 0.00 | 0.00 | 91 | 1012.5 |
| 20260905090548 | 66 | 78 | 0.0 | 1.0 | 0.00 | 0.00 | 0.00 | 91 | 1012.5 |
| 20260905090051 | 66 | 78 | 0.0 | 2.0 | 0.00 | 0.00 | 0.00 | 91 | 1012.5 |
| 20260905085556 | 67 | 78 | 0.0 | 0.0 | 0.00 | 0.00 | 0.00 | 92 | 1012.5 |
| 20260905085003 | 67 | 337 | 0.0 | 0.0 | 0.00 | 0.00 | 0.00 | 92 | 1012.6 |
| 20260905084517 | 67 | 337 | 0.0 | 0.0 | 0.00 | 0.00 | 0.00 | 92 | 1012.6 |
| 20260905084101 | 67 | 337 | 0.0 | 0.0 | 0.00 | 0.00 | 0.00 | 92 | 1012.6 |
| 20260905083555 | 67 | 337 | 0.0 | 0.0 | 0.00 | 0.00 | 0.00 | 92 | 1012.5 |
| 20260905083003 | 67 | 337 | 0.0 | 0.0 | 0.00 | 0.00 | 0.00 | 92 | 1012.5 |
| 20260905082514 | 67 | 337 | 0.0 | 0.0 | 0.00 | 0.00 | 0.00 | 92 | 1012.4 |
| 20260905082026 | 67 | 337 | 0.0 | 0.0 | 0.00 | 0.00 | 0.00 | 92 | 1012.3 |
| 20260905081538 | 67 | 337 | 0.0 | 0.0 | 0.00 | 0.00 | 0.00 | 92 | 1012.3 |
| 20260905081029 | 67 | 337 | 0.0 | 0.0 | 0.00 | 0.00 | 0.00 | 92 | 1012.1 |
| 20260905080534 | 67 | 337 | 0.0 | 0.0 | 0.00 | 0.00 | 0.00 | 92 | 1012.0 |
| 20260905080054 | 67 | 337 | 0.0 | 0.0 | 0.00 | 0.00 | 0.00 | 92 | 1012.1 |
| 20260905075530 | 67 | 337 | 0.0 | 0.0 | 0.00 | 0.00 | 0.00 | 93 | 1012.1 |
| 20260905075043 | 67 | 337 | 0.0 | 0.0 | 0.00 | 0.00 | 0.00 | 92 | 1012.1 |
| 20260905074551 | 67 | 337 | 0.0 | 0.0 | 0.00 | 0.00 | 0.00 | 92 | 1012.0 |
| 20260905074053 | 67 | 337 | 0.0 | 0.0 | 0.00 | 0.00 | 0.00 | 93 | 1012.2 |
| 20260905073558 | 67 | 337 | 0.0 | 0.0 | 0.00 | 0.00 | 0.00 | 93 | 1012.1 |
| 20260905073045 | 67 | 337 | 0.0 | 0.0 | 0.00 | 0.00 | 0.00 | 93 | 1012.1 |
| 20260905072516 | 67 | 337 | 0.0 | 0.0 | 0.00 | 0.00 | 0.00 | 93 | 1012.3 |
| 20260905072007 | 67 | 337 | 0.0 | 0.0 | 0.00 | 0.00 | 0.00 | 93 | 1012.3 |
| 20260905071523 | 67 | 337 | 0.0 | 0.0 | 0.00 | 0.00 | 0.00 | 93 | 1012.3 |
| 20260905071029 | 67 | 337 | 0.0 | 0.0 | 0.00 | 0.00 | 0.00 | 93 | 1012.5 |
| 20260905070532 | 67 | 337 | 0.0 | 0.0 | 0.00 | 0.00 | 0.00 | 93 | 1012.5 |
| 20260905070047 | 67 | 337 | 0.0 | 0.0 | 0.00 | 0.00 | 0.00 | 93 | 1012.6 |
| 20260905065551 | 67 | 337 | 0.0 | 0.0 | 0.00 | 0.00 | 0.00 | 93 | 1012.7 |
| 20260905065052 | 67 | 337 | 0.0 | 0.0 | 0.00 | 0.00 | 0.00 | 93 | 1012.8 |
| 20260905064600 | 67 | 337 | 0.0 | 0.0 | 0.00 | 0.00 | 0.00 | 93 | 1012.8 |
| 20260905064039 | 67 | 337 | 0.0 | 0.0 | 0.00 | 0.00 | 0.00 | 93 | 1012.7 |
| 20260905063546 | 67 | 337 | 0.0 | 0.0 | 0.00 | 0.00 | 0.00 | 93 | 1012.8 |
| 20260905063118 | 67 | 337 | 0.0 | 0.0 | 0.00 | 0.00 | 0.00 | 93 | 1012.8 |
| 20260905062507 | 67 | 337 | 0.0 | 0.0 | 0.00 | 0.00 | 0.00 | 93 | 1012.8 |
| 20260905062020 | 68 | 337 | 0.0 | 0.0 | 0.00 | 0.00 | 0.00 | 93 | 1012.8 |
| 20260905061529 | 68 | 337 | 0.0 | 0.0 | 0.00 | 0.00 | 0.00 | 93 | 1012.8 |
| 20260905061016 | 68 | 337 | 0.0 | 0.0 | 0.00 | 0.00 | 0.00 | 93 | 1012.8 |
| 20260905060514 | 68 | 337 | 0.0 | 0.0 | 0.00 | 0.00 | 0.00 | 93 | 1012.9 |
| 20260905060056 | 68 | 337 | 0.0 | 0.0 | 0.00 | 0.01 | 0.00 | 93 | 1012.9 |
| 20260905055504 | 68 | 337 | 0.0 | 0.0 | 0.00 | 0.01 | 0.00 | 93 | 1012.9 |
| 20260905055056 | 68 | 337 | 0.0 | 0.0 | 0.00 | 0.01 | 0.00 | 93 | 1012.8 |
| 20260905054507 | 68 | 337 | 0.0 | 0.0 | 0.00 | 0.01 | 0.00 | 93 | 1012.9 |
| 20260905054052 | 68 | 336 | 0.0 | 0.0 | 0.00 | 0.01 | 0.00 | 93 | 1012.9 |
| 20260905053554 | 68 | 337 | 0.0 | 0.0 | 0.00 | 0.01 | 0.00 | 93 | 1012.9 |
| 20260905053042 | 68 | 337 | 0.0 | 0.0 | 0.00 | 0.01 | 0.00 | 93 | 1012.9 |
| 20260905052524 | 68 | 337 | 0.0 | 0.0 | 0.00 | 0.01 | 0.00 | 93 | 1013.0 |
| 20260905052034 | 68 | 337 | 0.0 | 0.0 | 0.00 | 0.01 | 0.00 | 93 | 1013.1 |
| 20260905051543 | 68 | 337 | 0.0 | 0.0 | 0.00 | 0.01 | 0.00 | 93 | 1013.2 |
| 20260905051044 | 68 | 337 | 0.0 | 0.0 | 0.00 | 0.01 | 0.00 | 93 | 1013.2 |
| 20260905050552 | 68 | 337 | 0.0 | 0.0 | 0.00 | 0.01 | 0.00 | 93 | 1013.2 |
| 20260905050058 | 68 | 337 | 0.0 | 0.0 | 0.00 | 0.01 | 0.00 | 93 | 1013.2 |
| 20260905045507 | 68 | 337 | 0.0 | 0.0 | 0.00 | 0.01 | 0.00 | 93 | 1013.3 |
| 20260905045052 | 68 | 337 | 0.0 | 0.0 | 0.00 | 0.01 | 0.00 | 93 | 1013.3 |
| 20260905044555 | 68 | 337 | 0.0 | 0.0 | 0.00 | 0.01 | 0.00 | 93 | 1013.2 |
| 20260905044058 | 68 | 337 | 0.0 | 0.0 | 0.00 | 0.01 | 0.00 | 93 | 1013.2 |
| 20260905043506 | 69 | 337 | 0.0 | 0.0 | 0.00 | 0.01 | 0.00 | 93 | 1013.3 |
| 20260905043111 | 69 | 337 | 0.0 | 0.0 | 0.00 | 0.01 | 0.00 | 93 | 1013.3 |
| 20260905042559 | 69 | 337 | 0.0 | 0.0 | 0.00 | 0.01 | 0.00 | 93 | 1013.2 |
| 20260905042052 | 69 | 337 | 0.0 | 0.0 | 0.00 | 0.01 | 0.00 | 93 | 1013.3 |
| 20260905041558 | 69 | 337 | 0.0 | 0.0 | 0.00 | 0.01 | 0.00 | 93 | 1013.2 |
| 20260905041003 | 69 | 337 | 0.0 | 0.0 | 0.00 | 0.01 | 0.00 | 93 | 1013.2 |
| 20260905040520 | 69 | 337 | 0.0 | 0.0 | 0.00 | 0.01 | 0.00 | 93 | 1013.2 |
| 20260905040020 | 69 | 337 | 0.0 | 0.0 | 0.00 | 0.01 | 0.01 | 93 | 1013.3 |
| 20260905035527 | 69 | 337 | 0.0 | 0.0 | 0.00 | 0.01 | 0.01 | 93 | 1013.3 |
| 20260905035038 | 69 | 338 | 0.0 | 0.0 | 0.00 | 0.01 | 0.01 | 93 | 1013.2 |
| 20260905034543 | 69 | 338 | 0.0 | 0.0 | 0.00 | 0.01 | 0.01 | 93 | 1013.2 |
| 20260905034014 | 69 | 338 | 0.0 | 0.0 | 0.00 | 0.01 | 0.01 | 93 | 1013.2 |
| 20260905033530 | 69 | 338 | 0.0 | 0.0 | 0.00 | 0.01 | 0.01 | 93 | 1013.2 |
| 20260905033103 | 69 | 338 | 0.0 | 0.0 | 0.00 | 0.01 | 0.01 | 93 | 1013.3 |
| 20260905032548 | 69 | 338 | 0.0 | 0.0 | 0.00 | 0.01 | 0.01 | 93 | 1013.3 |
| 20260905032052 | 69 | 338 | 0.0 | 0.0 | 0.00 | 0.01 | 0.01 | 93 | 1013.2 |
| 20260905031503 | 69 | 338 | 0.0 | 0.0 | 0.00 | 0.01 | 0.01 | 92 | 1013.3 |
| 20260905031002 | 69 | 338 | 0.0 | 0.0 | 0.00 | 0.01 | 0.01 | 92 | 1013.2 |
| 20260905030551 | 69 | 338 | 0.0 | 0.0 | 0.00 | 0.01 | 0.01 | 92 | 1013.3 |
| 20260905030057 | 69 | 338 | 0.0 | 0.0 | 0.00 | 0.01 | 0.01 | 92 | 1013.3 |
| 20260905025506 | 69 | 338 | 0.0 | 0.0 | 0.00 | 0.01 | 0.01 | 92 | 1013.3 |
| 20260905025020 | 69 | 338 | 0.0 | 0.0 | 0.00 | 0.01 | 0.01 | 92 | 1013.2 |
| 20260905024527 | 69 | 338 | 0.0 | 0.0 | 0.00 | 0.01 | 0.01 | 92 | 1013.3 |
| 20260905024036 | 69 | 338 | 0.0 | 0.0 | 0.00 | 0.01 | 0.01 | 92 | 1013.3 |
| 20260905023545 | 69 | 338 | 0.0 | 0.0 | 0.00 | 0.01 | 0.01 | 92 | 1013.4 |
| 20260905023053 | 69 | 338 | 0.0 | 0.0 | 0.00 | 0.01 | 0.01 | 92 | 1013.4 |
| 20260905022548 | 69 | 338 | 0.0 | 0.0 | 0.00 | 0.01 | 0.01 | 92 | 1013.4 |
| 20260905022056 | 69 | 338 | 0.0 | 0.0 | 0.00 | 0.01 | 0.01 | 92 | 1013.4 |
| 20260905021507 | 69 | 338 | 0.0 | 0.0 | 0.00 | 0.01 | 0.01 | 92 | 1013.3 |
| 20260905021016 | 69 | 338 | 0.0 | 0.0 | 0.00 | 0.01 | 0.01 | 92 | 1013.2 |
| 20260905020518 | 69 | 338 | 0.0 | 0.0 | 0.00 | 0.01 | 0.01 | 92 | 1013.3 |
| 20260905020031 | 69 | 338 | 0.0 | 0.0 | 0.00 | 0.01 | 0.01 | 92 | 1013.3 |
| 20260905015540 | 69 | 338 | 0.0 | 0.0 | 0.00 | 0.01 | 0.01 | 92 | 1013.2 |
| 20260905015051 | 69 | 338 | 0.0 | 0.0 | 0.00 | 0.01 | 0.01 | 92 | 1013.2 |
| 20260905014554 | 69 | 338 | 0.0 | 0.0 | 0.00 | 0.01 | 0.01 | 92 | 1013.2 |
| 20260905014025 | 69 | 337 | 0.0 | 0.0 | 0.00 | 0.01 | 0.01 | 92 | 1013.2 |
| 20260905013528 | 69 | 337 | 0.0 | 0.0 | 0.00 | 0.01 | 0.01 | 92 | 1013.2 |
| 20260905013032 | 69 | 337 | 0.0 | 0.0 | 0.00 | 0.01 | 0.01 | 92 | 1013.2 |
| 20260905012540 | 69 | 337 | 0.0 | 0.0 | 0.00 | 0.01 | 0.01 | 92 | 1013.2 |
| 20260905012051 | 70 | 337 | 0.0 | 0.0 | 0.00 | 0.01 | 0.01 | 92 | 1013.1 |
| 20260905011556 | 70 | 337 | 0.0 | 0.0 | 0.00 | 0.01 | 0.01 | 91 | 1013.1 |
| 20260905011016 | 70 | 337 | 0.0 | 0.0 | 0.00 | 0.01 | 0.01 | 91 | 1013.0 |
| 20260905010519 | 70 | 337 | 0.0 | 0.0 | 0.00 | 0.01 | 0.01 | 91 | 1013.1 |
| 20260905010031 | 70 | 337 | 0.0 | 1.0 | 0.00 | 0.03 | 0.01 | 91 | 1013.1 |
| 20260905005538 | 70 | 337 | 0.0 | 1.0 | 0.00 | 0.03 | 0.01 | 91 | 1013.1 |
| 20260905005051 | 70 | 336 | 0.0 | 1.0 | 0.00 | 0.03 | 0.01 | 91 | 1013.1 |
| 20260905004610 | 70 | 337 | 0.0 | 0.0 | 0.00 | 0.03 | 0.01 | 91 | 1013.0 |
| 20260905004004 | 70 | 337 | 0.0 | 0.0 | 0.00 | 0.03 | 0.01 | 90 | 1013.1 |
| 20260905003522 | 70 | 337 | 0.0 | 0.0 | 0.00 | 0.03 | 0.01 | 90 | 1013.2 |
| 20260905003027 | 71 | 337 | 0.0 | 0.0 | 0.00 | 0.03 | 0.01 | 90 | 1013.1 |
| 20260905002538 | 71 | 337 | 0.0 | 0.0 | 0.00 | 0.03 | 0.01 | 90 | 1013.1 |
| 20260905002046 | 71 | 337 | 0.0 | 0.0 | 0.00 | 0.03 | 0.01 | 90 | 1013.2 |
| 20260905001550 | 71 | 337 | 0.0 | 0.0 | 0.00 | 0.03 | 0.01 | 90 | 1013.2 |
| 20260905001044 | 71 | 337 | 0.0 | 0.0 | 0.00 | 0.03 | 0.01 | 89 | 1013.3 |
| 20260905000552 | 71 | 337 | 0.0 | 0.0 | 0.00 | 0.03 | 0.01 | 89 | 1013.3 |
| 20260905000047 | 71 | 337 | 0.0 | 0.0 | 0.00 | 0.20 | 0.01 | 89 | 1013.4 |
| 20260904235527 | 71 | 337 | 0.0 | 0.0 | 0.00 | 0.20 | 0.01 | 88 | 1013.4 |
| 20260904235002 | 71 | 337 | 0.0 | 0.0 | 0.00 | 0.20 | 0.01 | 89 | 1013.4 |
| 20260904234555 | 71 | 337 | 0.0 | 0.0 | 0.00 | 0.20 | 0.01 | 89 | 1013.5 |
| 20260904234103 | 71 | 337 | 0.0 | 0.0 | 0.00 | 0.20 | 0.01 | 88 | 1013.4 |
| 20260904233548 | 71 | 337 | 0.0 | 0.0 | 0.00 | 0.20 | 0.01 | 88 | 1013.4 |
| 20260904233053 | 71 | 337 | 0.0 | 0.0 | 0.00 | 0.20 | 0.01 | 88 | 1013.3 |
| 20260904232539 | 71 | 337 | 0.0 | 0.0 | 0.00 | 0.20 | 0.01 | 88 | 1013.2 |
| 20260904232045 | 72 | 337 | 0.0 | 0.0 | 0.00 | 0.20 | 0.01 | 87 | 1013.2 |
| 20260904231533 | 72 | 337 | 0.0 | 0.0 | 0.00 | 0.20 | 0.01 | 87 | 1013.2 |
| 20260904231044 | 72 | 337 | 0.0 | 0.0 | 0.00 | 0.20 | 0.01 | 86 | 1013.1 |
| 20260904230551 | 72 | 337 | 0.0 | 0.0 | 0.00 | 0.20 | 0.01 | 86 | 1013.0 |
| 20260904230108 | 72 | 337 | 0.0 | 0.0 | 0.00 | 0.21 | 0.01 | 86 | 1012.9 |
| 20260904225507 | 72 | 337 | 0.0 | 1.0 | 0.00 | 0.21 | 0.01 | 86 | 1013.0 |
| 20260904225010 | 72 | 337 | 0.0 | 1.0 | 0.00 | 0.21 | 0.01 | 86 | 1013.0 |
| 20260904224526 | 72 | 337 | 0.0 | 1.0 | 0.00 | 0.21 | 0.01 | 86 | 1012.9 |
| 20260904224102 | 72 | 337 | 0.0 | 0.0 | 0.00 | 0.21 | 0.01 | 86 | 1012.9 |
| 20260904223547 | 72 | 337 | 0.0 | 0.0 | 0.00 | 0.21 | 0.01 | 85 | 1012.9 |
| 20260904223055 | 72 | 337 | 0.0 | 0.0 | 0.00 | 0.21 | 0.01 | 85 | 1012.8 |
| 20260904222558 | 72 | 337 | 0.0 | 1.0 | 0.00 | 0.21 | 0.01 | 85 | 1012.7 |
| 20260904222006 | 72 | 337 | 0.0 | 1.0 | 0.00 | 0.21 | 0.01 | 84 | 1012.7 |
| 20260904221525 | 72 | 337 | 0.0 | 2.0 | 0.00 | 0.21 | 0.01 | 84 | 1012.7 |
| 20260904221024 | 72 | 337 | 0.0 | 2.0 | 0.00 | 0.21 | 0.01 | 84 | 1012.6 |
| 20260904220533 | 72 | 337 | 1.0 | 2.0 | 0.00 | 0.21 | 0.01 | 84 | 1012.8 |
| 20260904220100 | 72 | 337 | 0.0 | 2.0 | 0.00 | 0.21 | 0.01 | 84 | 1012.8 |
| 20260904215547 | 73 | 337 | 0.0 | 3.0 | 0.00 | 0.21 | 0.01 | 85 | 1012.6 |
| 20260904215029 | 73 | 336 | 1.0 | 3.0 | 0.00 | 0.21 | 0.01 | 84 | 1012.3 |
| 20260904214526 | 73 | 337 | 1.0 | 3.0 | 0.00 | 0.21 | 0.01 | 84 | 1012.1 |
| 20260904214028 | 73 | 337 | 0.0 | 4.0 | 0.00 | 0.21 | 0.01 | 85 | 1012.1 |
| 20260904213532 | 73 | 337 | 0.0 | 4.0 | 0.00 | 0.21 | 0.01 | 85 | 1012.2 |
| 20260904213026 | 73 | 336 | 1.0 | 2.0 | 0.00 | 0.21 | 0.01 | 86 | 1012.1 |
| 20260904212536 | 72 | 336 | 1.0 | 4.0 | 0.00 | 0.21 | 0.01 | 85 | 1012.1 |